GW0149 Weather Reports


time (UTC)temp
C
wind
direction
speed
KPH
gust
KPH
rain 1hr
cm
rain 24hr
cm
rain mn
cm
humidity
%
barometer
mb
20260504160257 23 90 3.2 6.4 0.00 0.00 0.00 57 1020.2
20260504150722 22 180 0.0 8.0 0.00 0.00 0.00 64 1020.6
20260504150219 21 236 6.4 8.0 0.00 0.00 0.00 66 1020.7
20260504141148 20 198 3.2 6.4 0.00 0.00 0.00 73 1020.7
20260504140645 20 162 3.2 6.4 0.00 0.00 0.00 75 1020.8
20260504140140 20 261 0.0 6.4 0.00 0.00 0.00 74 1020.8
20260504130609 16 120 1.6 4.8 0.00 0.00 0.00 84 1020.5
20260504130105 15 109 3.2 4.8 0.00 0.00 0.00 87 1020.5
20260504110456 11 110 3.2 3.2 0.00 0.00 0.00 96 1020.2
20260504100419 11 90 0.0 1.6 0.00 0.00 0.00 97 1020.0
20260504081812 12 115 3.2 4.8 0.00 0.00 0.00 95 1020.1
20260504081309 12 105 1.6 4.8 0.00 0.00 0.00 97 1020.1
20260504080805 11 103 1.6 3.2 0.00 0.00 0.00 97 1020.2
20260504080301 11 106 1.6 3.2 0.00 0.00 0.00 97 1020.2
20260504070229 11 180 0.0 1.6 0.00 0.00 0.00 97 1020.8
20260504060149 12 110 3.2 3.2 0.00 0.00 0.00 96 1021.3
20260504050618 12 110 3.2 4.8 0.00 0.00 0.00 95 1021.5
20260504050115 12 90 0.0 3.2 0.00 0.00 0.00 95 1021.6
20260504045612 12 111 1.6 4.8 0.00 0.00 0.00 95 1021.6
20260504045106 12 109 4.8 4.8 0.00 0.00 0.00 95 1021.3
20260504044605 12 90 3.2 4.8 0.00 0.00 0.00 95 1021.6
20260504044101 12 95 3.2 3.2 0.00 0.00 0.00 94 1021.5
20260504043558 12 114 3.2 3.2 0.00 0.00 0.00 94 1021.5
20260504043055 12 105 4.8 4.8 0.00 0.00 0.00 94 1021.5
20260504042552 12 95 3.2 4.8 0.00 0.00 0.00 94 1021.5
20260504042049 12 99 3.2 3.2 0.00 0.00 0.00 93 1021.4
20260504041545 12 102 1.6 3.2 0.00 0.00 0.00 93 1021.6
20260504041041 12 110 3.2 4.8 0.00 0.00 0.00 93 1021.4
20260504040539 12 105 3.2 4.8 0.00 0.00 0.00 93 1021.5
20260504040035 13 94 3.2 4.8 0.00 0.00 0.00 93 1021.5
20260504035532 13 110 3.2 3.2 0.00 0.00 0.00 92 1021.6
20260504035029 13 106 3.2 4.8 0.00 0.00 0.00 92 1021.7
20260504034527 13 103 3.2 4.8 0.00 0.00 0.00 92 1021.5
20260504034023 13 108 4.8 4.8 0.00 0.00 0.00 92 1021.6
20260504033521 13 105 4.8 4.8 0.00 0.00 0.00 92 1021.8
20260504033018 13 110 3.2 4.8 0.00 0.00 0.00 92 1021.8
20260504032515 13 108 4.8 4.8 0.00 0.00 0.00 92 1021.5
20260504032012 13 98 3.2 4.8 0.00 0.00 0.00 91 1021.7
20260504031509 13 123 0.0 4.8 0.00 0.00 0.00 91 1021.6
20260504031005 13 114 3.2 4.8 0.00 0.00 0.00 91 1021.7
20260504030503 13 122 4.8 4.8 0.00 0.00 0.00 91 1021.8
20260504025958 13 114 3.2 4.8 0.00 0.00 0.00 91 1021.9
20260504025455 13 114 3.2 4.8 0.00 0.00 0.00 91 1021.9
20260504024952 13 105 1.6 3.2 0.00 0.00 0.00 90 1021.7
20260504024449 13 105 3.2 3.2 0.00 0.00 0.00 90 1021.7
20260504023946 14 114 3.2 3.2 0.00 0.00 0.00 91 1021.8
20260504023443 14 96 3.2 3.2 0.00 0.00 0.00 90 1021.9
20260504022938 14 112 4.8 4.8 0.00 0.00 0.00 90 1021.6
20260504022435 14 112 3.2 4.8 0.00 0.00 0.00 90 1021.5
20260504021932 15 109 3.2 3.2 0.00 0.00 0.00 89 1021.5
20260504021429 15 160 1.6 4.8 0.00 0.00 0.00 88 1021.6
20260504020926 15 105 3.2 4.8 0.00 0.00 0.00 88 1021.5
20260504020423 15 114 0.0 4.8 0.00 0.00 0.00 88 1021.5
20260504015919 15 115 3.2 4.8 0.00 0.00 0.00 87 1021.3
20260504015415 15 103 3.2 3.2 0.00 0.00 0.00 86 1021.5
20260504014912 15 105 0.0 3.2 0.00 0.00 0.00 85 1021.4
20260504014408 15 115 3.2 3.2 0.00 0.00 0.00 86 1021.3
20260504013905 15 106 3.2 4.8 0.00 0.00 0.00 85 1021.2
20260504013403 15 112 4.8 4.8 0.00 0.00 0.00 84 1021.4
20260504012859 16 111 4.8 4.8 0.00 0.00 0.00 84 1021.2
20260504012357 16 123 0.0 4.8 0.00 0.00 0.00 83 1021.2
20260504011854 16 108 3.2 3.2 0.00 0.00 0.00 81 1021.2
20260504011351 16 122 4.8 4.8 0.00 0.00 0.00 80 1021.0
20260504010847 16 129 3.2 4.8 0.00 0.00 0.00 79 1021.0
20260504010342 16 117 3.2 4.8 0.00 0.00 0.00 79 1020.9
20260504005839 17 115 3.2 3.2 0.00 0.00 0.00 78 1020.8
20260504005336 17 124 3.2 4.8 0.00 0.00 0.00 78 1020.9
20260504004833 17 172 0.0 4.8 0.00 0.00 0.00 77 1020.7
20260504004331 18 130 4.8 4.8 0.00 0.00 0.00 72 1020.8
20260504003827 18 121 3.2 4.8 0.00 0.00 0.00 72 1020.8
20260504003324 18 129 3.2 4.8 0.00 0.00 0.00 71 1020.8
20260504002821 18 115 3.2 4.8 0.00 0.00 0.00 71 1020.6
20260504002318 19 125 4.8 4.8 0.00 0.00 0.00 74 1020.6
20260504001816 19 125 3.2 4.8 0.00 0.00 0.00 70 1020.6
20260504001313 20 131 0.0 3.2 0.00 0.00 0.00 67 1020.7
20260504000809 20 123 3.2 3.2 0.00 0.00 0.00 67 1020.7
20260504000306 21 135 3.2 4.8 0.00 0.00 0.00 62 1020.5
20260503235804 21 157 0.0 3.2 0.00 0.00 0.00 60 1020.8
20260503235304 21 140 0.0 3.2 0.00 0.00 0.00 61 1020.7
20260503234759 22 175 1.6 1.6 0.00 0.00 0.00 57 1020.7
20260503234257 22 114 0.0 1.6 0.00 0.00 0.00 57 1020.6
20260503233754 22 216 3.2 4.8 0.00 0.00 0.00 50 1020.6
20260503233249 23 209 3.2 3.2 0.00 0.00 0.00 52 1020.7
20260503232747 23 7 4.8 8.0 0.00 0.00 0.00 47 1020.9
20260503232244 23 352 3.2 4.8 0.00 0.00 0.00 47 1020.8
20260503231742 23 14 1.6 6.4 0.00 0.00 0.00 47 1020.9
20260503231239 23 270 1.6 6.4 0.00 0.00 0.00 46 1021.0
20260503230734 23 357 4.8 8.0 0.00 0.00 0.00 46 1021.0
20260503230232 24 235 3.2 4.8 0.00 0.00 0.00 46 1021.0
20260503225729 23 309 3.2 8.0 0.00 0.00 0.00 47 1020.8
20260503225229 23 349 6.4 12.9 0.00 0.00 0.00 48 1020.8
20260503224726 24 289 6.4 8.0 0.00 0.00 0.00 45 1021.0
20260503224224 23 74 1.6 8.0 0.00 0.00 0.00 47 1021.1
20260503223722 23 301 3.2 4.8 0.00 0.00 0.00 47 1021.1
20260503223219 24 324 3.2 8.0 0.00 0.00 0.00 47 1021.1
20260503222715 24 261 0.0 9.7 0.00 0.00 0.00 47 1021.2
20260503222213 23 234 6.4 8.0 0.00 0.00 0.00 46 1021.2
20260503221712 23 308 8.0 9.7 0.00 0.00 0.00 46 1021.3
20260503221209 23 221 0.0 12.9 0.00 0.00 0.00 47 1021.2
20260503220705 23 16 4.8 4.8 0.00 0.00 0.00 47 1021.1
20260503220202 23 9 6.4 8.0 0.00 0.00 0.00 48 1021.1
20260503215659 22 8 3.2 6.4 0.00 0.00 0.00 51 1021.4
20260503215155 23 0 3.2 4.8 0.00 0.00 0.00 49 1021.2
20260503214654 23 82 0.0 6.4 0.00 0.00 0.00 45 1021.5
20260503214149 23 173 0.0 4.8 0.00 0.00 0.00 44 1021.4
20260503213643 23 5 1.6 4.8 0.00 0.00 0.00 47 1021.5
20260503213140 23 341 8.0 11.3 0.00 0.00 0.00 45 1021.5
20260503212637 24 241 4.8 8.0 0.00 0.00 0.00 44 1021.5
20260503212135 23 342 1.6 8.0 0.00 0.00 0.00 44 1021.6
20260503211632 23 279 3.2 14.5 0.00 0.00 0.00 43 1021.6
20260503211127 23 1 11.3 11.3 0.00 0.00 0.00 46 1021.7
20260503210624 23 289 12.9 17.7 0.00 0.00 0.00 45 1021.8
20260503210121 23 315 4.8 8.0 0.00 0.00 0.00 43 1021.8
20260503205616 24 349 9.7 12.9 0.00 0.00 0.00 47 1022.1
20260503205113 23 262 4.8 8.0 0.00 0.00 0.00 44 1022.1
20260503204610 23 289 0.0 8.0 0.00 0.00 0.00 42 1022.3
20260503204107 23 317 6.4 17.7 0.00 0.00 0.00 43 1022.3
20260503203604 23 346 1.6 14.5 0.00 0.00 0.00 41 1022.4
20260503203101 23 288 6.4 9.7 0.00 0.00 0.00 42 1022.4
20260503202559 23 2 4.8 14.5 0.00 0.00 0.00 41 1022.5
20260503202057 23 336 12.9 12.9 0.00 0.00 0.00 43 1022.6
20260503201555 23 289 8.0 16.1 0.00 0.00 0.00 40 1022.4
20260503201052 23 11 4.8 16.1 0.00 0.00 0.00 41 1022.7
20260503200548 23 308 3.2 8.0 0.00 0.00 0.00 40 1022.8
20260503200044 23 331 4.8 14.5 0.00 0.00 0.00 44 1023.1
20260503195542 23 259 3.2 6.4 0.00 0.00 0.00 37 1022.9
20260503195038 23 0 4.8 8.0 0.00 0.00 0.00 42 1023.3
20260503194536 23 357 11.3 12.9 0.00 0.00 0.00 40 1023.4
20260503194035 23 11 3.2 6.4 0.00 0.00 0.00 37 1023.4
20260503193532 23 3 4.8 4.8 0.00 0.00 0.00 39 1023.5
20260503193027 23 354 4.8 8.0 0.00 0.00 0.00 38 1023.4
20260503192524 23 292 3.2 9.7 0.00 0.00 0.00 42 1023.7
20260503192020 23 319 3.2 16.1 0.00 0.00 0.00 37 1023.7
20260503191517 23 18 3.2 14.5 0.00 0.00 0.00 39 1023.6
20260503191014 23 244 4.8 11.3 0.00 0.00 0.00 40 1023.8
20260503190511 22 285 0.0 8.0 0.00 0.00 0.00 38 1023.7
20260503190008 23 350 4.8 8.0 0.00 0.00 0.00 43 1024.1
20260503185504 22 355 11.3 14.5 0.00 0.00 0.00 47 1023.9
20260503185004 22 35 4.8 8.0 0.00 0.00 0.00 41 1024.0
20260503184500 22 246 3.2 14.5 0.00 0.00 0.00 47 1024.1
20260503183956 22 1 8.0 11.3 0.00 0.00 0.00 43 1024.3
20260503183453 22 4 9.7 9.7 0.00 0.00 0.00 46 1024.3
20260503182950 22 8 3.2 9.7 0.00 0.00 0.00 46 1024.5
20260503182449 23 226 6.4 9.7 0.00 0.00 0.00 45 1024.4
20260503181946 23 90 3.2 9.7 0.00 0.00 0.00 50 1024.5
20260503181443 22 213 4.8 8.0 0.00 0.00 0.00 48 1024.6
20260503180939 22 310 4.8 8.0 0.00 0.00 0.00 48 1024.6
20260503180438 22 240 8.0 8.0 0.00 0.00 0.00 47 1024.7
20260503175934 22 257 6.4 12.9 0.00 0.00 0.00 44 1024.8
20260503175432 22 114 0.0 6.4 0.00 0.00 0.00 46 1024.9
20260503174928 22 217 4.8 17.7 0.00 0.00 0.00 49 1024.9
20260503174426 22 246 1.6 8.0 0.00 0.00 0.00 50 1025.0
20260503173926 22 235 3.2 4.8 0.00 0.00 0.00 49 1025.2
20260503173423 22 214 3.2 9.7 0.00 0.00 0.00 50 1025.2
20260503172919 22 26 3.2 6.4 0.00 0.00 0.00 51 1025.1
20260503172417 22 320 8.0 8.0 0.00 0.00 0.00 50 1025.2
20260503171913 22 23 4.8 8.0 0.00 0.00 0.00 54 1025.3
20260503171410 22 213 8.0 14.5 0.00 0.00 0.00 51 1025.5
20260503170907 21 292 3.2 12.9 0.00 0.00 0.00 54 1025.5
20260503170403 22 194 1.6 9.7 0.00 0.00 0.00 52 1025.6